Location: Artiguedieu
(43.5000°N, 0.5454°E)
Time: 16:19:21
(UTC+00:00)

Transit 2A Rocket - Pass Details

Date: 04 August 2021
Orbit: 586 x 916 km, 66.7° (Epoch: 21 September)

Event Time Altitude Azimuth Distance (km) Brightness Sun altitude
Rises 23:46:57 0° 308° (NW) 3,368 8.9 -29.4°
Reaches altitude 10° 23:50:48 10° 282° (WNW) 2,495 7.8 -29.5°
Enters shadow 23:52:24 12° 266° (W) 2,340 7.5 -29.5°
Maximum altitude 23:53:15 13° 257° (WSW) 2,325 - -29.5°
Drops below altitude 10° 23:55:46 10° 231° (SW) 2,553 - -29.5°
Sets 23:59:50 0° 205° (SSW) 3,523 - -29.5°
